Tracking 25405 objects as of 26-Jan-2022
HD Live streaming from Space Station
objects crossing your sky now

ANIK E2

Track ANIK E2 now!
ANIK E2 is classified as:


NORAD ID: 21222
Int'l Code: 1991-026A
Perigee: 36,077.3 km
Apogee: 36,159.3 km
Inclination: 12.8 °
Period: 1,452.7 minutes
Semi major axis: 42489 km
RCS: 12.1056 m2 (large)
Launch date: April 4, 1991
Source: Canada (CA)
Launch site: FRENCH GUIANA (FRGUI)

Inclined orbit; Anik is Inuit for "Little Brother"; 24 C-band, 16 Ku-band transponders.
aabbcc
Your satellite tracking list
Your tracking list is empty




NASA's NSSDC Master Catalog

Two Line Element Set (TLE):
1 21222U 91026A   22025.51652928  .00000055  00000-0  00000-0 0  9996
2 21222  12.8171  23.5393 0009648   1.7031 356.3512  0.99125076101168
Source of the keplerian elements: AFSPC